CZ-6A DEB, 56594

Orbit data source: Space-Track

CZ-6A DEB, 56594 is space debris in SSO originally from a launch on Fri, 11 Nov 2022 UTC launched from the Taiyaun Space Center, China (TSC). Debris objects in space refer to the collection of defunct objects orbiting the Earth. Examples of debris include non-operational satellites, rocket bodies, and fragments generated from explosions, collisions, or faulty payload assembly.

Loading next visibility...
Identifier
56594, 2022-151ADS
Orbit
SSO
Country
Flag of CNCN / PRC
Related business
Manufacturer
SAST
Mission
Spacecraft
Bus & Motor
Unknown
Mass
Unknown
Launch date (UTC)
2022-11-11 (3 years ago)
Launch vehicle
Unknown
Launch site
Taiyaun Space Center, China (TSC)
Object type
Payload
Rocket body
Debris
Shape & HBR
Unknown shape, 0.1 m
Radar Cross Section
Small (<0.1 m²)

Expand to show TLE details & history
Last TLE update: 1 day ago

TLE from 1 day ago
0 CZ-6A DEB
1 56594U 22151ADS 26129.71983053  .00000169  00000-0  11001-3 0  9998
2 56594  98.8010 136.0848 0028197  16.0456 344.1604 14.14782118162059
Epoch: 2026-05-09T17:16Z
TLE epoch observation values (Epoch: 2026-05-09T17:16:33.357Z)
Latitude
-0.00005°
Longitude
9.4126°
Altitude
826.37 km
Speed
7.45 km/s
True Right ascension
09h 04m 20s
True Declination
0° 00' 00"
Sunlit
Object was in daylight at epoch
Visualization orbit readout
Latitude
Unknown
Longitude
Unknown
Altitude
Unknown
Speed
Unknown
Apparent Right ascension
Unknown
Apparent Declination
Unknown
Sunlit
N/A
Visualization observer readout
Local Sidereal Time
07:23:13
Azimuth
Unknown
Elevation
Unknown
Doppler factor
Unknown
Orbital elements
Apogee altitude
860.577 km
Perigee altitude
819.87 km
Semi-major axis
7,218.36 km
Eccentricity
0.00282
Inclination
98.801°
RAAN
136.0848°
Arg. of periapsis
16.0456°
True anomaly
344.07191°
Mean anomaly
344.1604°
Eccentric anomaly
344.11618°
Mean motion
3.53904 °/min
Orbital period
101.72 mins
BSTAR
0.00011001
Loading maneuver chart data...
Computing Atmospheric mass density...
Loading historical data...
Loading historical data...
Loading historical data...
Loading historical data...
Loading historical data...
Loading historical data...
Loading historical data...

Documentation

Showing up to 5 results
|